Location: Hiram
(41.3130°N, 81.1440°W)
Time: 08:48:39
(UTC-05:00)

Daily predictions for brighter satellites

Satellite Brightness Start Highest point End
(mag) Time Altitude Azimuth Time Altitude Azimuth Time Altitude Azimuth
Cosmos 1536 Rocket 3.6 17:21:49 10° S 17:26:16 75° E 17:30:45 10° NNE
CSL-04 Debris 4.5 17:22:45 10° S 17:28:08 75° WSW 17:33:34 10° NNW
IRS-1A Rocket 4.3 17:23:08 10° SSE 17:28:38 89° WSW 17:34:13 10° NNW
Abrixas 2.7 17:27:16 10° WNW 17:30:13 71° SSW 17:33:09 10° SE
Cosmos 1844 Rocket 4.4 17:26:43 10° WSW 17:31:34 29° NW 17:36:29 10° N
Cosmos 1484 Rocket 4.0 17:34:11 10° ESE 17:36:52 19° ENE 17:39:34 10° NNE
YAOGAN 1 2.8 17:32:45 10° SSE 17:36:54 49° ENE 17:41:06 10° N
Timation 2 Rocket 4.2 17:30:07 10° NNW 17:36:59 71° ENE 17:43:50 10° SSE
CORIOLIS 4.3 17:32:19 10° SSE 17:37:32 53° ENE 17:42:46 10° N
NOSS 2-1 (D) 3.4 17:37:18 10° SSW 17:41:04 64° ESE 17:45:16 10° NE
BREEZE M DEB (TANK) 3.6 17:30:22 10° SW 17:41:29 60° SSE 17:44:40 12° ENE
SPOT 3 Rocket 3.5 17:36:28 10° SSE 17:41:36 66° ENE 17:46:43 10° N
NOSS 2-1 (C) 3.4 17:37:58 10° SSW 17:41:45 63° ESE 17:45:59 10° NE
COSMOS 2487 2.7 17:38:11 10° NNW 17:41:47 75° WSW 17:45:20 10° SSE
Cosmos 1812 4.2 17:47:39 10° SSW 17:51:16 39° WNW 17:54:55 10° N
Meteor 2-4 Rocket 4.2 17:47:36 10° SSE 17:52:23 34° E 17:57:10 10° NNE
Cosmos 1455 Rocket 4.4 17:48:15 10° NNW 17:52:27 44° W 17:56:40 10° SSW
Cosmos 1975 3.4 17:49:57 10° NNW 17:53:56 61° W 17:57:54 10° S
Cosmos 1238 Rocket 4.4 17:52:03 10° SW 17:54:41 27° WNW 17:57:35 10° NNW
SJ-7 4.4 17:50:47 10° SSE 17:55:01 76° ENE 17:59:16 10° N
Nadezhda 3 Rocket 4.0 17:49:30 10° S 17:55:39 69° E 18:01:55 10° NNE
Meteor 1-13 Rocket 4.3 17:51:24 10° S 17:57:04 69° E 18:02:54 10° NNE
Delta 2 Rocket 4.4 17:54:12 10° WSW 17:57:24 33° S 18:00:54 10° ESE
NOSS 2-1 (E) 3.3 17:56:36 10° SSW 18:00:28 90° NW 18:04:22 13° NE
SKYMED 2 4.2 17:57:56 10° NNE 18:01:56 35° E 18:05:55 10° SSE
Cosmos 1340 4.3 18:00:47 10° SE 18:02:53 16° E 18:02:53 16° E
BREEZE-M DEB (TANK) 4.4 18:02:08 10° WNW 18:08:23 31° N 18:11:00 17° NE
CZ-4 R/B 2.5 18:04:31 10° S 18:08:32 48° W 18:12:31 10° NNW
GRACE-2 3.7 18:09:13 10° S 18:11:58 73° E 18:14:45 10° N
GRACE-1 3.7 18:09:38 10° S 18:12:23 76° E 18:15:10 10° N
CZ-4 R/B 4.4 18:08:41 10° SSE 18:12:50 87° WSW 18:17:01 10° NNW
Cosmos 2297 4.2 18:07:50 10° SW 18:13:23 59° WNW 18:18:58 10° NNE
Thor Agena Rocket 3.9 18:08:12 10° N 18:13:25 68° WNW 18:18:39 10° SSW
MONITOR-E 4.1 18:11:29 10° SSE 18:14:39 70° ENE 18:17:51 10° N
IDEFIX/ARIANE 42P 3.1 18:10:00 10° S 18:15:07 63° W 18:20:16 10° NNW
MSX 3.8 18:09:26 10° SSE 18:15:11 87° ENE 18:20:58 10° NNW
Cosmos 1892 Rocket 4.3 18:11:32 10° SSE 18:15:22 31° E 18:17:17 22° NE
COSMOS 2441 4.3 18:11:32 10° SSE 18:16:24 77° ENE 18:21:20 10° N
CZ-2C R/B 3.2 18:12:18 10° S 18:17:16 57° W 18:22:21 10° NNW
USA 234 3.3 18:11:47 15° NE 18:17:22 89° NW 18:23:54 10° SW
Cosmos 1726 Rocket 4.0 18:16:15 10° N 18:20:27 39° ENE 18:24:38 10° SSE
Cosmos 2278 Rocket 4.0 18:16:10 10° WSW 18:20:52 27° NW 18:25:37 10° N
Cosmos 1666 2.7 18:19:24 10° N 18:23:14 57° E 18:27:03 10° SSE
Okean 1-7 Rocket 3.9 18:21:05 10° SSW 18:25:33 69° W 18:30:01 10° N
Meteor 2-8 Rocket 4.5 18:20:40 10° SSE 18:26:34 55° E 18:32:31 10° NNE
SMAP 4.4 18:23:45 10° S 18:28:09 43° W 18:32:36 10° NNW
Cosmos 1833 Rocket 3.5 18:29:07 10° NNW 18:34:35 53° WSW 18:40:01 10° S
NOSS 3-4 (A) 3.8 18:28:34 10° NW 18:35:38 87° NE 18:43:07 10° SE
NOSS 3-4 (C) 3.8 18:28:40 10° NW 18:35:44 86° NE 18:43:14 10° SE
Cosmos 1934 Rocket 3.9 18:29:30 10° N 18:35:44 74° E 18:42:03 10° SSE
Tiangong 1 1.0 18:33:15 10° W 18:36:16 64° N 18:36:16 64° N
Cosmos 1606 Rocket 3.4 18:35:58 10° N 18:40:28 79° E 18:44:56 10° S
ERBS 4.1 18:40:16 10° NNW 18:41:47 20° N 18:41:47 20° N
BREEZE M DEB (TANK) 3.5 18:39:32 10° NW 18:43:20 66° NNE 18:50:56 20° ESE
Cosmos 2082 Rocket 3.8 18:40:57 10° NW 18:46:05 36° WSW 18:51:14 10° S
Cosmos 407 Rocket 3.3 18:41:53 10° NNW 18:47:02 75° ENE 18:52:12 10° SSE
COSMO-SKYMED 1 2.9 18:46:17 13° N 18:50:05 67° WNW 18:54:22 10° SSW
Cosmos 2056 Rocket 3.8 18:45:45 10° SSW 18:51:05 69° WNW 18:55:04 18° NNE
Meteor 1-28 Rocket 3.0 18:51:38 70° NE 18:51:59 79° ESE 18:55:45 10° S
Cosmos 1025 Rocket 3.7 18:47:52 10° SSW 18:52:09 54° W 18:56:29 10° N
ISS -0.7 18:52:49 10° NNW 18:53:35 13° NNW 18:53:35 13° NNW
Cosmos 676 Rocket 3.8 18:54:34 10° NNW 18:59:46 69° ENE 19:02:36 27° SSE
Cosmos 1954 Rocket 4.0 18:58:17 10° NNW 19:03:04 57° NE 19:03:04 57° NE
NOAA 12 4.2 19:10:16 10° S 19:15:31 75° WSW 19:20:48 10° NNW
Cosmos 1153 Rocket 4.3 19:11:11 10° N 19:17:22 74° E 19:23:28 10° SSE
Cosmos 2058 Rocket 3.4 19:14:11 10° NNW 19:18:36 63° W 19:22:58 10° S
BREEZE-M R/B 4.5 19:10:50 10° W 19:18:37 37° NNW 19:19:21 36° N
Cosmos 2369 Rocket 2.0 19:17:11 10° SSW 19:22:49 78° ESE 19:22:50 78° ESE
Cosmos 1605 Rocket 4.2 19:16:59 10° NNW 19:23:13 69° W 19:29:19 10° S
CZ-3A R/B 4.4 19:24:41 10° WNW 19:31:19 24° N 19:32:03 23° N
ATLAS 3B CENTAUR R/B 4.5 19:14:36 10° W 19:32:19 37° SSW 19:37:23 21° SSE
CZ-3B DEB 4.2 19:32:55 10° WNW 19:38:46 36° N 19:41:21 32° NNE
Cosmos 1452 Rocket 3.9 19:34:43 10° SSW 19:39:51 60° WNW 19:39:51 60° WNW
Cosmos 1943 Rocket 4.1 19:42:02 10° S 19:43:25 18° S 19:43:25 18° S
USA 234 4.3 19:59:08 33° N 19:59:53 34° NNW 20:05:38 10° W
FALCON 9 R/B 3.5 19:58:32 10° W 20:13:31 48° SSW 20:13:37 48° SSW
